Weather History for KGWB - March, 2014

Change the Weather History Date:

Sunday, March 2, 2014

  Actual Average (KFWA) Record (KFWA)
Temperature  
Mean Temperature 18 °F 33 °F  
Max Temperature 21 °F 42 °F 69 °F (1992)
Min Temperature 14 °F 24 °F -7 °F (1980)
Degree Days  
Heating Degree Days 48 32  
Month to date heating degree days 64  
Since 1 July heating degree days 4662  
Cooling Degree Days 0 0  
Month to date cooling degree days 0  
Year to date cooling degree days 0  
Moisture  
Dew Point 10 °F    
Average Humidity 75    
Maximum Humidity 93    
Minimum Humidity 58    
Precipitation  
Precipitation 0.02 in 0.07 in 0.72 in (1940)
Month to date precipitation 0.15  
Year to date precipitation 4.45  
Snow  
Snow 0.00 in 0.20 in 4.00 in (2014)
Month to date snowfall 0.4  
Since 1 July snowfall 28.8  
Snow Depth -    
Sea Level Pressure  
Sea Level Pressure 30.26 in    
Wind  
Wind Speed 6 mph (NNE)    
Max Wind Speed 10 mph    
Max Gust Speed 16 mph    
Visibility 7 miles    
Events Snow    
T = Trace of Precipitation, MM = Missing Value Source: NWS Daily Summary

Daily Weather History Graph

Daily Weather History Graph

Search for Another Location

Airport or City:

Trip Planner

Search our weather history database for the weather conditions in past years. The results will help you decide how hot, cold, wet, or windy it might be!

Date:

Astronomy

Mar. 02, 2014 Rise Set
Actual Time 7:13 AM EST 6:32 PM EST
Civil Twilight 6:45 AM EST 6:59 PM EST
Nautical Twilight 6:13 AM EST 7:31 PM EST
Astronomical Twilight 5:41 AM EST 8:03 PM EST
Moon 7:42 AM EST (3/2) 8:29 PM EST (3/2)
Length of Visible Light 12h 14m
Length of Day
11h 19m
Waxing Crescent, 3% of the Moon is Illuminated
Mar 2
Waxing Crescent
Mar 8
First Quarter
Mar 16
Full
Mar 23
Last Quarter
Mar 30
New

Hourly Weather History & Observations

Time (EST) Temp. Windchill Dew Point Humidity Pressure Visibility Wind Dir Wind Speed Gust Speed Precip Events Conditions
12:15 AM 21.2 °F 12.6 °F 17.6 °F 86% 30.23 in 1.8 mi NW 6.9 mph - N/A Snow Light Snow
12:35 AM 21.2 °F 13.6 °F 17.6 °F 86% 30.23 in 2.0 mi NNW 5.8 mph - N/A Snow Light Snow
12:55 AM 19.4 °F 12.8 °F 17.6 °F 93% 30.21 in 2.5 mi NNW 4.6 mph - N/A Snow Light Snow
1:20 AM 19.4 °F 12.8 °F 15.8 °F 86% 30.21 in 5.0 mi NNW 4.6 mph - N/A Snow Light Snow
1:35 AM 19.4 °F 10.4 °F 15.8 °F 86% 30.24 in 10.0 mi NW 6.9 mph - N/A Snow Light Snow
1:55 AM 19.4 °F 9.5 °F 15.8 °F 86% 30.22 in 10.0 mi NNW 8.1 mph - N/A   Overcast
2:15 AM 19.4 °F 9.5 °F 14.0 °F 80% 30.25 in 4.0 mi NNW 8.1 mph - N/A Snow Light Snow
2:35 AM 19.4 °F 10.4 °F 14.0 °F 80% 30.25 in 1.5 mi NNW 6.9 mph - N/A Snow Light Snow
2:55 AM 19.4 °F 10.4 °F 14.0 °F 80% 30.24 in 1.8 mi NNW 6.9 mph - N/A Snow Light Snow
3:15 AM 17.6 °F 5.7 °F 14.0 °F 86% 30.24 in 1.8 mi NNW 10.4 mph - 0.01 in Snow Light Snow
3:35 AM 17.6 °F 5.7 °F 14.0 °F 86% 30.23 in 2.5 mi North 10.4 mph - 0.01 in Snow Light Snow
3:55 AM 17.6 °F 7.3 °F 14.0 °F 86% 30.22 in 2.5 mi North 8.1 mph - 0.01 in Snow Light Snow
4:15 AM 17.6 °F 6.4 °F 12.2 °F 79% 30.23 in 3.0 mi North 9.2 mph - N/A Snow Light Snow
4:35 AM 17.6 °F 5.7 °F 12.2 °F 79% 30.24 in 3.0 mi North 10.4 mph - N/A Snow Light Snow
4:55 AM 17.6 °F 7.3 °F 12.2 °F 79% 30.24 in 2.5 mi North 8.1 mph - N/A Snow Light Snow
5:15 AM 17.6 °F 8.2 °F 12.2 °F 79% 30.23 in 1.8 mi North 6.9 mph - N/A Snow Light Snow
5:35 AM 15.8 °F 6.1 °F 12.2 °F 86% 30.25 in 1.5 mi North 6.9 mph - N/A Snow Light Snow
5:55 AM 15.8 °F 7.2 °F 12.2 °F 86% 30.25 in 1.8 mi North 5.8 mph - N/A Snow Light Snow
6:15 AM 15.8 °F 7.2 °F 12.2 °F 86% 30.25 in 1.5 mi North 5.8 mph - N/A Snow Light Snow
6:35 AM 15.8 °F 7.2 °F 12.2 °F 86% 30.25 in 1.8 mi NNE 5.8 mph - N/A Snow Light Snow
6:55 AM 15.8 °F 7.2 °F 12.2 °F 86% 30.25 in 1.8 mi North 5.8 mph - N/A Snow Light Snow
7:15 AM 15.8 °F 6.1 °F 12.2 °F 86% 30.25 in 1.8 mi North 6.9 mph - 0.01 in Snow Light Snow
7:35 AM 15.8 °F 7.2 °F 12.2 °F 86% 30.25 in 1.0 mi North 5.8 mph - 0.01 in Snow Light Snow
7:55 AM 15.8 °F 5.1 °F 12.2 °F 86% 30.24 in 1.2 mi NNE 8.1 mph - 0.01 in Snow Light Snow
8:15 AM 15.8 °F 6.1 °F 12.2 °F 86% 30.25 in 1.8 mi NNE 6.9 mph - N/A Snow Light Snow
8:35 AM 15.8 °F 5.1 °F 12.2 °F 86% 30.24 in 3.0 mi NE 8.1 mph - N/A Snow Light Snow
8:55 AM 15.8 °F 5.1 °F 10.4 °F 79% 30.26 in 2.0 mi NNE 8.1 mph - N/A Snow Light Snow
9:15 AM 15.8 °F 4.2 °F 10.4 °F 79% 30.27 in 2.0 mi NE 9.2 mph - N/A Snow Light Snow
9:40 AM 17.6 °F 7.3 °F 10.4 °F 73% 30.28 in 5.0 mi NNE 8.1 mph - N/A Snow Light Snow
9:55 AM 17.6 °F 7.3 °F 10.4 °F 73% 30.27 in 5.0 mi NE 8.1 mph - N/A Snow Light Snow
10:15 AM 17.6 °F 6.4 °F 10.4 °F 73% 30.28 in 3.0 mi NE 9.2 mph - N/A Snow Light Snow
10:35 AM 17.6 °F 6.4 °F 10.4 °F 73% 30.26 in 3.0 mi ENE 9.2 mph - N/A Snow Light Snow
10:55 AM 17.6 °F 9.3 °F 10.4 °F 73% 30.27 in 10.0 mi ENE 5.8 mph - N/A   Mostly Cloudy
11:20 AM 17.6 °F 8.2 °F 10.4 °F 73% 30.27 in 10.0 mi East 6.9 mph - N/A   Overcast
11:35 AM 17.6 °F 9.3 °F 10.4 °F 73% 30.27 in 10.0 mi East 5.8 mph - N/A   Overcast
11:55 AM 17.6 °F 9.3 °F 8.6 °F 68% 30.28 in 10.0 mi NNE 5.8 mph - N/A Snow Light Snow
12:15 PM 17.6 °F 12.3 °F 8.6 °F 68% 30.28 in 7.0 mi East 3.5 mph - N/A Snow Light Snow
12:35 PM 17.6 °F 8.2 °F 8.6 °F 68% 30.27 in 10.0 mi ENE 6.9 mph - N/A Snow Light Snow
12:55 PM 19.4 °F 11.5 °F 8.6 °F 63% 30.27 in 7.0 mi ENE 5.8 mph - N/A Snow Light Snow
1:15 PM 19.4 °F 11.5 °F 10.4 °F 68% 30.26 in 10.0 mi ENE 5.8 mph - N/A   Mostly Cloudy
1:35 PM 19.4 °F 14.3 °F 8.6 °F 63% 30.25 in 10.0 mi NE 3.5 mph - N/A   Mostly Cloudy
1:55 PM 19.4 °F 12.8 °F 8.6 °F 63% 30.25 in 10.0 mi ENE 4.6 mph - N/A   Mostly Cloudy
2:15 PM 21.2 °F 16.4 °F 8.6 °F 58% 30.26 in 10.0 mi East 3.5 mph - N/A   Overcast
2:35 PM 19.4 °F 14.3 °F 8.6 °F 63% 30.26 in 10.0 mi ENE 3.5 mph - N/A   Mostly Cloudy
2:55 PM 19.4 °F - 8.6 °F 63% 30.25 in 10.0 mi Calm Calm - N/A Snow Light Snow
3:15 PM 19.4 °F 12.8 °F 10.4 °F 68% 30.24 in 10.0 mi ENE 4.6 mph - N/A Snow Light Snow
3:35 PM 19.4 °F 14.3 °F 8.6 °F 63% 30.24 in 10.0 mi East 3.5 mph - N/A   Scattered Clouds
3:55 PM 19.4 °F 14.3 °F 8.6 °F 63% 30.24 in 10.0 mi East 3.5 mph - N/A   Clear
4:15 PM 21.2 °F - 10.4 °F 63% 30.24 in 10.0 mi Calm Calm - N/A   Mostly Cloudy
4:35 PM 19.4 °F 14.3 °F 10.4 °F 68% 30.24 in 10.0 mi ENE 3.5 mph - N/A   Mostly Cloudy
4:55 PM 19.4 °F 14.3 °F 10.4 °F 68% 30.25 in 10.0 mi East 3.5 mph - N/A   Overcast
5:15 PM 19.4 °F - 10.4 °F 68% 30.25 in 10.0 mi Calm Calm - N/A   Overcast
5:40 PM 19.4 °F 14.3 °F 10.4 °F 68% 30.25 in 10.0 mi ENE 3.5 mph - N/A   Overcast
5:55 PM 19.4 °F - 8.6 °F 63% 30.23 in 10.0 mi Calm Calm - N/A   Scattered Clouds
6:15 PM 17.6 °F 12.3 °F 8.6 °F 68% 30.24 in 10.0 mi East 3.5 mph - N/A   Scattered Clouds
6:35 PM 17.6 °F - 8.6 °F 68% 30.25 in 10.0 mi Calm Calm - N/A   Mostly Cloudy
6:55 PM 17.6 °F - 8.6 °F 68% 30.25 in 10.0 mi Calm Calm - N/A   Overcast
7:15 PM 15.8 °F - 8.6 °F 73% 30.25 in 10.0 mi Calm Calm - N/A   Overcast
7:35 PM 15.8 °F - 6.8 °F 68% 30.26 in 10.0 mi Calm Calm - N/A   Overcast
7:55 PM 15.8 °F - 6.8 °F 68% 30.26 in 10.0 mi Calm Calm - N/A   Overcast
8:15 PM 15.8 °F - 6.8 °F 68% 30.25 in 10.0 mi Calm Calm - N/A   Overcast
8:35 PM 14.0 °F - 6.8 °F 73% 30.26 in 10.0 mi Calm Calm - N/A   Overcast
8:55 PM 14.0 °F - 6.8 °F 73% 30.28 in 10.0 mi Calm Calm - N/A   Overcast
9:15 PM 14.0 °F - 6.8 °F 73% 30.28 in 10.0 mi Calm Calm - N/A   Overcast
9:35 PM 14.0 °F 6.5 °F 8.6 °F 79% 30.27 in 10.0 mi NE 4.6 mph - N/A   Overcast
9:55 PM 14.0 °F 8.2 °F 6.8 °F 73% 30.27 in 7.0 mi NE 3.5 mph - N/A Snow Light Snow
10:15 PM 14.0 °F 3.9 °F 6.8 °F 73% 30.28 in 10.0 mi North 6.9 mph - N/A   Overcast
10:35 PM 14.0 °F 8.2 °F 6.8 °F 73% 30.30 in 10.0 mi North 3.5 mph - N/A   Overcast
10:55 PM 14.0 °F 6.5 °F 6.8 °F 73% 30.32 in 10.0 mi North 4.6 mph - N/A   Overcast
11:15 PM 14.0 °F 3.9 °F 6.8 °F 73% 30.31 in 10.0 mi North 6.9 mph - N/A   Overcast
11:35 PM 14.0 °F 2.0 °F 5.0 °F 67% 30.31 in 10.0 mi North 9.2 mph - N/A   Overcast
11:55 PM 14.0 °F 2.9 °F 3.2 °F 62% 30.32 in 10.0 mi North 8.1 mph 16.1 mph N/A   Overcast